Location: Observatoire de Paris
(48.8363°N, 2.3365°E)
Time: 02:53:40
(UTC+01:00)

Vanguard 3 - Pass Details

Date: 10 August 2021
Orbit: 510 x 3260 km, 33.3° (Epoch: 18 September)

Event Time Altitude Azimuth Distance (km) Brightness Sun altitude
Rises 23:16:50 0° 270° (W) 6,536 12.1 -22.2°
Reaches altitude 10° 23:24:13 10° 250° (WSW) 5,921 11.6 -22.7°
Maximum altitude 23:32:20 14° 224° (SW) 5,764 11.2 -23.3°
Enters shadow 23:39:56 11° 200° (SSW) 6,101 11.2 -23.7°
